CW4629 Weather Reports


time (UTC)temp
C
wind
direction
speed
KPH
gust
KPH
rain 1hr
cm
rain 24hr
cm
rain mn
cm
humidity
%
barometer
mb
20260906030836 29 180 0.0 0.0 0.00 0.00 0.00 20 1015.5
20260906025920 30 180 0.0 0.0 0.00 0.00 0.00 19 1015.4
20260906024020 30 202 1.6 3.2 0.00 0.00 0.00 17 1015.2
20260906023021 31 225 3.2 4.8 0.00 0.00 0.00 18 1015.2
20260906022020 31 225 1.6 4.8 0.00 0.00 0.00 17 1014.9
20260906021020 31 225 6.4 9.7 0.00 0.00 0.00 16 1014.9
20260906020038 32 239 8.0 12.9 0.00 0.00 0.00 16 1014.9
20260906015118 32 243 8.0 11.3 0.00 0.00 0.00 16 1014.9
20260906014118 32 247 4.8 12.9 0.00 0.00 0.00 15 1014.9
20260906013135 33 226 8.0 14.5 0.00 0.00 0.00 16 1014.9
20260906012219 33 230 9.7 14.5 0.00 0.00 0.00 16 1014.9
20260906011218 33 237 12.9 20.9 0.00 0.00 0.00 16 1014.9
20260906010218 33 209 9.7 16.1 0.00 0.00 0.00 15 1014.9
20260906005235 33 237 14.5 19.3 0.00 0.00 0.00 14 1014.9
20260906004220 33 240 12.9 16.1 0.00 0.00 0.00 14 1014.7
20260906003234 34 231 17.7 22.5 0.00 0.00 0.00 14 1014.7
20260906000219 35 227 12.9 17.7 0.00 0.00 0.00 15 1014.6
20260905235219 34 238 12.9 20.9 0.00 0.00 0.00 15 1014.6
20260905234219 34 230 16.1 22.5 0.00 0.00 0.00 14 1014.6
20260905233218 34 234 19.3 32.2 0.00 0.00 0.00 15 1014.7
20260905232219 35 246 16.1 22.5 0.00 0.00 0.00 15 1014.8
20260905231220 34 201 12.9 25.7 0.00 0.00 0.00 15 1014.9
20260905230237 35 231 24.1 40.2 0.00 0.00 0.00 16 1014.9
20260905225335 35 244 16.1 32.2 0.00 0.00 0.00 15 1014.7
20260905224336 35 238 9.7 16.1 0.00 0.00 0.00 15 1015.0
20260905223320 35 228 20.9 30.6 0.00 0.00 0.00 15 1014.9
20260905222335 35 228 14.5 24.1 0.00 0.00 0.00 16 1015.4
20260905221420 35 237 14.5 27.4 0.00 0.00 0.00 16 1015.3
20260905215520 35 240 17.7 27.4 0.00 0.00 0.00 16 1015.6
20260905214618 35 250 11.3 16.1 0.00 0.00 0.00 15 1015.7
20260905213619 34 247 1.6 3.2 0.00 0.00 0.00 15 1015.9
20260905212718 34 237 12.9 19.3 0.00 0.00 0.00 16 1016.0
20260905211735 34 245 11.3 14.5 0.00 0.00 0.00 15 1016.2
20260905210820 34 200 16.1 30.6 0.00 0.00 0.00 15 1016.4
20260905205836 34 241 12.9 20.9 0.00 0.00 0.00 16 1016.4
20260905204918 34 212 14.5 20.9 0.00 0.00 0.00 16 1016.4
20260905203938 35 201 14.5 22.5 0.00 0.00 0.00 15 1016.6
20260905203018 34 187 6.4 11.3 0.00 0.00 0.00 15 1016.7
20260905202020 33 228 9.7 17.7 0.00 0.00 0.00 15 1016.7
20260905201019 33 256 9.7 14.5 0.00 0.00 0.00 16 1016.6
20260905200118 33 219 14.5 22.5 0.00 0.00 0.00 16 1016.7
20260905200037 34 223 16.1 27.4 0.00 0.00 0.00 15 1016.7
20260905195119 34 197 12.9 19.3 0.00 0.00 0.00 16 1016.9
20260905194218 34 220 6.4 9.7 0.00 0.00 0.00 17 1017.0
20260905193218 33 157 0.0 0.0 0.00 0.00 0.00 17 1017.1
20260905193118 33 154 1.6 6.4 0.00 0.00 0.00 17 1017.1
20260905192120 33 178 4.8 6.4 0.00 0.00 0.00 16 1017.2
20260905192019 33 127 6.4 12.9 0.00 0.00 0.00 16 1017.2
20260905191036 32 114 3.2 6.4 0.00 0.00 0.00 17 1017.4
20260905190919 32 133 1.6 6.4 0.00 0.00 0.00 17 1017.4
20260905184934 33 157 6.4 8.0 0.00 0.00 0.00 17 1017.8
20260905183018 33 105 4.8 9.7 0.00 0.00 0.00 17 1018.0
20260905181120 32 85 1.6 8.0 0.00 0.00 0.00 17 1018.2
20260905180218 32 2 1.6 8.0 0.00 0.00 0.00 16 1018.2
20260905175220 32 84 4.8 6.4 0.00 0.00 0.00 17 1018.2
20260905174222 31 169 1.6 3.2 0.00 0.00 0.00 18 1018.2
20260905173220 31 162 1.6 4.8 0.00 0.00 0.00 18 1018.3
20260905172220 30 322 1.6 3.2 0.00 0.00 0.00 21 1018.4
20260905171219 30 202 0.0 0.0 0.00 0.00 0.00 21 1018.4
20260905170217 29 222 6.4 6.4 0.00 0.00 0.00 21 1018.4
20260905165234 28 247 1.6 4.8 0.00 0.00 0.00 22 1018.5
20260905163233 27 202 0.0 3.2 0.00 0.00 0.00 23 1018.5
20260905162233 27 216 3.2 6.4 0.00 0.00 0.00 23 1018.5
20260905161220 27 167 1.6 6.4 0.00 0.00 0.00 24 1018.5
20260905160220 26 204 1.6 3.2 0.00 0.00 0.00 24 1018.5
20260905155318 26 225 1.6 3.2 0.00 0.00 0.00 23 1018.5
20260905154318 25 247 0.0 0.0 0.00 0.00 0.00 25 1018.5
20260905154235 25 247 0.0 1.6 0.00 0.00 0.00 25 1018.5
20260905153218 25 270 0.0 1.6 0.00 0.00 0.00 26 1018.5
20260905152234 25 247 0.0 0.0 0.00 0.00 0.00 29 1018.7
20260905151333 23 247 0.0 0.0 0.00 0.00 0.00 30 1018.5
20260905145435 22 247 0.0 0.0 0.00 0.00 0.00 32 1018.6
20260905144435 21 247 0.0 0.0 0.00 0.00 0.00 33 1018.8
20260905143534 20 247 0.0 0.0 0.00 0.00 0.00 34 1018.8
20260905141519 17 247 0.0 0.0 0.00 0.00 0.00 37 1018.8
20260905140534 16 247 1.6 6.4 0.00 0.00 0.00 44 1018.8
20260905135517 16 22 0.0 0.0 0.00 0.00 0.00 46 1018.5
20260905134536 15 22 0.0 0.0 0.00 0.00 0.00 45 1018.2
20260905133618 15 22 1.6 4.8 0.00 0.00 0.00 44 1018.1
20260905132619 16 22 0.0 0.0 0.00 0.00 0.00 42 1018.0
20260905131717 16 112 0.0 0.0 0.00 0.00 0.00 39 1017.8
20260905130720 16 107 0.0 0.0 0.00 0.00 0.00 41 1017.9
20260905130635 16 67 0.0 0.0 0.00 0.00 0.00 41 1017.8
20260905125620 16 290 1.6 8.0 0.00 0.00 0.00 39 1017.7
20260905124716 17 22 3.2 4.8 0.00 0.00 0.00 38 1017.5
20260905123719 17 315 0.0 1.6 0.00 0.00 0.00 38 1017.7
20260905121718 17 292 4.8 8.0 0.00 0.00 0.00 38 1017.4
20260905120734 16 315 1.6 3.2 0.00 0.00 0.00 42 1017.4
20260905115733 16 355 1.6 3.2 0.00 0.00 0.00 43 1017.4
20260905114819 16 22 3.2 4.8 0.00 0.00 0.00 44 1017.2
20260905113818 16 22 0.0 0.0 0.00 0.00 0.00 42 1017.2
20260905112818 16 247 1.6 3.2 0.00 0.00 0.00 42 1017.1
20260905111916 17 45 0.0 1.6 0.00 0.00 0.00 42 1017.1
20260905110934 17 45 1.6 3.2 0.00 0.00 0.00 41 1016.9
20260905105935 17 315 0.0 0.0 0.00 0.00 0.00 41 1017.1
20260905104934 17 315 0.0 0.0 0.00 0.00 0.00 39 1017.1
20260905103918 17 315 0.0 0.0 0.00 0.00 0.00 37 1017.0
20260905102919 17 112 0.0 0.0 0.00 0.00 0.00 39 1017.0
20260905100934 18 112 0.0 0.0 0.00 0.00 0.00 34 1017.0
20260905094032 18 292 0.0 0.0 0.00 0.00 0.00 35 1016.8
20260905093037 18 292 0.0 1.6 0.00 0.00 0.00 39 1016.6
20260905092019 18 202 0.0 0.0 0.00 0.00 0.00 38 1016.5
20260905091034 18 225 0.0 0.0 0.00 0.00 0.00 38 1016.5
20260905090036 18 112 0.0 0.0 0.00 0.00 0.00 37 1016.6
20260905085116 19 112 0.0 1.6 0.00 0.00 0.00 35 1016.4
20260905083216 18 337 0.0 0.0 0.00 0.00 0.00 39 1016.6
20260905082217 18 337 0.0 0.0 0.00 0.00 0.00 39 1016.5
20260905081233 19 337 0.0 0.0 0.00 0.00 0.00 38 1016.4
20260905080235 19 337 1.6 1.6 0.00 0.00 0.00 36 1016.5
20260905075320 20 315 0.0 0.0 0.00 0.00 0.00 35 1016.4
20260905074416 20 290 1.6 3.2 0.00 0.00 0.00 35 1016.3
20260905073418 20 22 0.0 1.6 0.00 0.00 0.00 37 1016.1
20260905072515 20 22 0.0 0.0 0.00 0.00 0.00 35 1016.1
20260905070617 20 22 0.0 0.0 0.00 0.00 0.00 36 1015.7
20260905065632 21 22 0.0 0.0 0.00 0.00 0.00 34 1015.7
20260905064616 21 22 0.0 0.0 0.00 0.00 0.00 32 1015.6
20260905063632 22 292 0.0 0.0 0.00 0.00 0.00 30 1015.5
20260905062719 22 292 0.0 1.6 0.00 0.00 0.00 29 1015.5
20260905061717 21 22 3.2 4.8 0.00 0.00 0.00 31 1015.3
20260905060816 22 283 1.6 4.8 0.00 0.00 0.00 30 1015.4
20260905060733 22 274 3.2 4.8 0.00 0.00 0.00 29 1015.2
20260905055743 22 337 1.6 1.6 0.00 0.00 0.00 30 1015.1
20260905054828 22 292 0.0 0.0 0.00 0.00 0.00 32 1015.1
20260905053844 22 297 0.0 1.6 0.00 0.00 0.00 29 1015.0
20260905053728 22 15 0.0 0.0 0.00 0.00 0.00 29 1014.9
20260905052728 22 22 0.0 0.0 0.00 0.00 0.00 30 1015.2
20260905051745 23 90 0.0 0.0 0.00 0.00 0.00 28 1014.9
20260905050728 24 90 0.0 0.0 0.00 0.00 0.00 25 1014.9
20260905045744 23 90 0.0 1.6 0.00 0.00 0.00 25 1014.6
20260905044825 23 90 0.0 3.2 0.00 0.00 0.00 26 1014.5
20260905043843 23 333 0.0 0.0 0.00 0.00 0.00 28 1014.7
20260905042826 23 315 3.2 3.2 0.00 0.00 0.00 30 1014.6
20260905041844 24 315 0.0 0.0 0.00 0.00 0.00 28 1014.5
20260905040926 25 315 0.0 0.0 0.00 0.00 0.00 26 1014.4
20260905035927 25 315 0.0 0.0 0.00 0.00 0.00 24 1014.3
20260905034944 26 112 0.0 0.0 0.00 0.00 0.00 22 1014.1
20260905034843 26 112 0.0 0.0 0.00 0.00 0.00 21 1014.2
20260905033928 26 112 0.0 1.6 0.00 0.00 0.00 22 1014.1
20260905033027 27 202 0.0 0.0 0.00 0.00 0.00 21 1014.1